Theta_e
308 308 308 310 309 308 307 306 305 304 304 303 304 303 303 302 303 301 297 300 295 290 291 293 294 291 291 290 286 290 289 291 289 283 284 283 283 286 285 289 288 287 285 285 286 284 282 293 295 292 295 297 305 308
307 307 308 309 308 307 306 305 304 303 303 303 303 302 302 302 303 303 295 300 300 294 291 296 296 298 297 296 293 294 291 291 289 285 287 286 284 287 287 284 293 286 290 286 286 285 292 295 294 297 299 307 309 308
307 307 308 308 308 307 306 304 303 303 302 303 302 302 302 303 303 302 297 298 297 293 292 293 294 298 303 302 303 292 294 296 290 291 286 286 283 288 284 288 289 293 294 290 289 291 292 294 296 298 300 301 308 307
306 307 308 308 307 306 304 303 302 302 302 302 301 302 303 303 303 302 297 298 297 294 287 290 301 297 302 302 302 303 299 297 294 290 286 286 284 290 288 290 287 290 293 290 289 291 294 295 296 297 298 300 301 305
306 307 308 307 306 305 303 302 302 302 301 301 302 303 302 303 303 301 300 300 300 293 287 290 296 300 302 306 303 303 301 296 292 287 286 286 290 291 295 290 286 292 291 288 285 294 293 294 298 298 296 297 299 299
305 306 307 306 305 304 302 301 301 301 301 302 302 302 302 302 303 298 293 302 304 301 292 285 295 296 299 302 305 303 302 298 294 291 289 292 296 294 289 285 290 295 297 297 294 299 298 299 300 301 298 298 299 299
304 306 307 305 304 302 301 301 301 301 301 301 301 302 302 303 300 294 293 299 304 300 292 286 287 298 303 304 304 304 302 297 296 294 293 295 296 297 291 286 293 297 297 298 300 300 296 298 297 301 301 301 301 301
305 306 306 304 302 301 300 300 300 300 300 301 302 302 302 303 302 296 300 302 302 297 294 286 286 292 303 295 296 304 300 300 298 297 298 297 299 296 287 292 297 299 300 300 299 299 297 298 298 299 301 301 299 299
305 306 305 302 301 300 300 300 300 300 301 302 303 303 302 299 298 301 308 306 307 298 290 289 286 286 299 295 297 300 301 293 300 295 298 299 294 289 293 295 297 299 299 298 300 299 298 296 296 296 296 296 295 295
305 305 303 301 300 299 299 299 300 300 301 303 302 300 295 301 307 305 301 297 296 296 295 289 293 289 294 294 293 295 299 295 292 296 300 293 291 298 300 301 302 301 301 299 295 293 294 293 293 294 294 295 294 294
305 303 301 300 299 299 299 300 300 302 303 300 297 295 298 306 300 298 293 292 293 290 292 292 293 291 297 290 290 294 294 295 289 294 293 291 290 296 302 301 302 299 298 297 296 295 294 294 294 293 293 294 293 292
303 301 300 299 299 299 299 299 301 300 298 295 295 299 300 296 295 290 290 294 292 291 294 293 296 298 297 297 292 294 293 295 286 299 293 289 293 299 300 299 298 297 296 295 295 294 294 295 294 293 292 290 289 289
301 300 299 299 299 299 299 299 300 300 300 300 296 293 291 292 286 286 284 289 291 298 299 298 294 298 297 296 293 292 291 291 300 292 289 293 297 299 299 298 297 296 295 295 294 294 294 293 294 292 290 288 287 285
300 299 298 298 299 299 299 300 300 299 296 291 289 284 286 286 288 291 292 294 298 298 297 297 296 295 297 294 295 291 295 297 290 287 289 294 296 298 299 298 296 295 295 295 294 294 293 292 291 290 289 287 285 284
298 298 298 298 299 300 301 300 299 298 294 289 290 283 287 293 295 297 298 297 299 300 299 296 297 297 295 293 296 294 292 289 291 289 294 297 299 299 299 298 296 295 295 294 294 293 293 292 289 288 287 286 287 285
298 297 297 299 300 299 298 299 298 299 294 290 289 287 291 291 293 295 296 297 301 300 300 299 295 292 292 294 292 291 290 288 292 297 299 299 299 300 299 298 299 297 296 294 293 293 292 291 288 286 287 288 288 288
296 295 301 300 301 300 299 297 297 292 290 288 288 292 291 291 292 294 296 299 304 299 293 295 290 291 296 292 291 296 293 296 298 299 300 301 300 299 300 299 299 297 296 294 293 293 292 291 289 287 285 287 288 287
295 300 300 299 298 299 298 296 293 290 286 288 287 291 294 297 295 296 298 300 300 298 296 293 295 290 290 289 291 294 299 301 302 301 300 301 301 301 300 298 299 297 295 294 293 292 291 289 287 285 287 287 288 286
297 297 297 298 297 295 293 293 293 286 288 291 293 295 296 297 300 301 300 301 303 303 298 295 290 289 292 297 297 299 300 300 299 300 301 302 301 300 300 300 298 297 295 294 292 290 289 289 287 287 288 289 287 286
297 297 298 298 298 292 290 292 298 292 289 294 296 294 296 296 299 299 300 300 301 299 295 293 293 297 298 300 302 302 302 302 301 298 298 299 301 301 299 299 297 296 295 294 293 291 290 290 290 288 288 288 288 286
298 299 300 298 296 294 292 292 292 294 294 292 295 295 295 298 297 297 297 301 296 294 294 299 300 302 305 305 306 306 305 304 302 300 298 297 300 300 300 299 298 297 296 293 291 290 290 288 289 288 288 289 289 288
297 298 298 298 293 293 292 294 291 295 293 293 293 294 293 293 295 297 301 297 296 297 301 302 302 303 303 304 306 307 306 306 305 301 298 298 299 298 298 298 297 295 295 294 293 291 290 289 289 290 288 288 288 288
298 297 295 295 290 289 287 295 290 292 288 291 295 291 292 295 296 300 294 297 300 303 304 304 305 306 305 306 307 307 306 305 302 302 301 301 301 300 300 299 298 296 295 294 294 292 290 288 288 288 288 289 287 286
297 292 290 289 289 285 292 291 293 291 292 291 290 289 292 293 295 293 291 295 300 304 304 304 305 304 302 303 303 303 305 305 303 303 303 301 299 299 300 297 298 298 297 296 293 291 291 291 289 289 289 288 287 287
287 285 287 282 290 288 286 288 288 290 288 290 289 291 293 293 287 288 290 295 298 300 303 304 305 304 302 302 303 304 306 303 301 300 303 301 299 297 296 297 298 298 298 295 293 293 292 291 292 290 290 289 288 288
281 287 284 286 287 286 287 286 288 288 290 289 291 295 297 293 290 288 292 297 298 300 300 302 302 302 304 305 303 304 305 306 305 302 302 301 299 297 296 295 295 296 299 298 296 294 293 293 292 291 290 289 287 289
281 284 290 294 292 291 290 291 293 291 289 289 292 293 293 288 287 290 298 301 301 302 302 304 305 304 302 301 304 307 309 308 306 305 306 303 302 301 300 298 297 299 301 300 298 296 294 294 293 292 291 290 290 290
287 288 286 290 290 292 288 289 289 289 292 296 295 290 288 288 287 296 301 305 304 304 303 303 304 304 303 303 304 304 307 309 308 309 306 304 304 304 305 305 304 291 302 302 300 298 297 296 295 294 292 291 290 292
287 290 290 287 289 290 290 289 290 295 299 297 293 292 293 297 299 301 305 306 307 305 302 301 302 305 304 303 302 302 304 305 305 302 302 299 302 304 306 304 302 303 303 300 289 295 299 298 297 296 295 294 293 293
287 292 288 289 287 287 291 298 297 301 301 300 300 298 298 299 302 304 305 304 303 303 304 303 304 302 300 300 299 298 300 302 302 301 300 299 300 304 306 306 306 305 304 302 301 296 286 293 290 295 296 295 294 293
293 293 290 289 289 293 297 299 302 301 300 298 299 297 295 297 300 302 302 302 301 300 300 299 298 300 300 300 299 297 296 300 300 299 300 303 303 302 303 303 303 306 306 304 302 299 297 297 296 296 295 295 295 293
291 290 289 288 291 296 299 298 297 293 292 294 294 297 297 295 294 299 302 302 299 297 292 298 298 297 299 300 300 300 292 299 298 298 298 296 297 297 298 300 303 304 304 306 304 302 300 298 298 297 296 296 296 295
291 292 292 291 292 292 296 295 293 290 291 291 292 296 296 294 291 297 301 300 299 299 299 299 299 298 299 299 299 299 293 300 292 286 286 285 285 287 293 296 296 297 299 300 303 304 304 302 299 299 298 297 297 297
Wind_Speed
10 11 12 11 7 6 6 6 7 9 10 11 12 12 13 13 14 8 6 7 6 6 14 19 16 12 15 14 9 11 8 2 2 4 3 4 4 4 4 4 5 1 3 1 3 2 5 21 12 7 9 15 12 1
11 11 10 10 7 7 6 6 8 9 11 11 12 13 14 14 15 12 6 6 8 6 13 20 24 24 26 27 13 3 5 9 3 2 1 3 3 4 5 4 5 3 5 2 4 3 7 11 8 12 15 4 8 5
13 12 11 9 7 7 5 6 8 10 11 12 12 14 14 15 15 12 6 7 7 6 12 7 9 14 13 11 15 5 3 3 2 2 1 3 5 3 3 3 5 2 6 2 2 5 11 11 11 14 11 12 15 19
11 11 11 8 6 6 5 6 8 10 11 12 13 14 16 15 15 14 6 7 4 3 6 7 8 22 21 13 11 12 10 5 4 2 2 3 4 3 3 5 4 4 5 3 2 4 2 13 12 11 15 18 19 16
11 10 10 7 7 7 7 7 9 11 12 13 14 16 15 15 13 9 8 7 7 3 4 11 22 5 12 8 9 9 5 6 3 2 3 3 3 4 2 3 5 6 5 4 3 4 10 11 12 14 22 18 17 20
12 11 10 8 7 8 8 7 10 12 14 15 16 16 16 14 12 3 3 0 4 3 4 6 7 10 14 14 0 2 5 3 3 3 3 3 5 3 3 3 7 9 8 8 10 12 12 12 15 19 20 17 20 21
12 12 9 8 7 8 8 9 11 13 15 17 17 17 16 14 5 3 3 2 6 6 3 6 6 7 7 3 2 2 3 2 2 2 3 2 3 2 3 3 3 2 1 1 1 4 16 15 11 14 17 18 21 19
11 11 10 9 8 7 8 10 12 15 17 19 19 19 18 13 10 6 8 18 10 3 1 4 6 6 4 4 4 2 1 2 3 2 1 1 1 3 3 4 6 8 4 7 7 4 11 10 11 11 13 13 16 13
12 11 10 9 8 7 8 11 13 16 19 20 21 23 6 4 3 3 3 3 3 3 3 4 3 4 5 3 4 1 3 1 3 2 3 3 3 3 6 6 5 6 5 10 11 12 12 13 14 14 14 15 14 12
12 11 10 8 7 7 8 11 14 17 21 23 7 3 3 3 3 5 2 2 4 3 3 4 4 5 3 4 4 4 1 1 2 3 1 4 3 1 3 7 6 4 6 8 13 11 12 10 12 13 13 12 12 11
12 11 10 8 7 7 8 10 13 16 13 3 2 2 5 6 3 3 3 4 4 4 5 5 7 6 2 2 3 4 4 2 2 3 4 3 2 5 6 5 8 12 14 14 13 13 10 9 10 10 11 12 11 11
13 11 9 7 6 7 7 8 11 6 3 6 5 6 3 3 4 5 4 5 7 5 6 4 4 4 3 2 3 3 3 1 4 3 3 2 4 7 9 12 10 10 12 13 13 13 11 11 10 10 10 10 10 10
12 10 8 7 7 7 7 8 7 9 11 4 3 3 3 4 3 6 5 4 1 1 3 4 2 4 2 3 3 3 3 4 2 3 3 3 6 9 11 10 10 10 10 11 11 11 12 12 12 11 11 10 9 8
12 9 7 7 8 8 8 8 8 6 3 3 3 4 5 6 6 5 3 3 3 3 4 4 3 2 1 3 4 3 5 4 2 2 1 6 9 10 10 9 9 7 8 8 8 9 12 12 11 11 10 8 6 4
9 7 7 8 10 10 8 6 6 4 2 3 4 6 7 8 7 1 3 3 2 5 4 4 4 4 3 4 3 4 4 1 4 3 4 7 8 9 9 10 8 7 7 7 8 8 11 12 11 10 7 6 4 4
7 5 7 10 8 7 5 6 3 2 3 4 7 7 8 7 4 4 5 3 3 4 5 2 3 3 4 1 4 3 3 2 3 2 8 6 9 7 7 9 7 9 9 8 8 8 8 10 10 8 6 3 3 4
4 4 12 12 9 6 6 3 2 5 5 6 6 8 10 7 8 6 3 2 2 3 2 3 3 2 5 3 4 3 1 3 6 6 6 6 7 9 7 10 10 10 9 8 7 7 7 9 10 7 6 5 4 5
2 8 11 5 3 7 4 4 3 4 8 8 7 9 7 6 5 4 4 2 2 1 1 2 3 4 4 4 3 4 3 5 5 6 5 7 7 7 9 9 8 8 9 9 7 6 6 6 7 4 5 6 6 5
5 2 1 2 3 2 3 6 4 5 9 8 9 8 7 6 6 5 3 3 4 2 3 2 2 3 3 3 3 1 2 3 5 5 5 6 7 8 8 9 8 8 8 7 7 6 5 6 4 3 3 4 5 4
8 9 8 7 5 3 4 4 5 6 6 3 5 8 5 5 4 3 4 3 4 2 3 3 4 3 2 3 3 2 3 4 6 7 6 4 5 7 6 7 5 8 8 8 5 6 5 5 3 4 4 4 5 4
5 5 8 8 5 5 5 4 5 6 5 6 7 7 4 6 5 4 4 3 2 3 3 5 5 4 5 4 3 4 4 4 5 6 7 6 5 5 5 6 7 5 8 6 6 4 6 4 5 4 4 4 5 5
0 2 2 5 4 5 6 6 5 4 4 6 8 7 6 5 4 2 2 3 4 5 3 2 3 2 3 4 3 6 7 7 6 7 7 7 7 5 5 5 3 7 5 6 5 6 6 4 5 5 5 4 5 5
4 4 3 6 5 3 7 5 4 5 5 3 3 6 5 1 3 3 2 2 2 1 3 3 3 3 4 3 6 7 3 7 5 9 8 7 4 4 5 3 6 7 7 6 5 7 6 7 5 6 5 6 5 5
2 3 4 4 7 5 4 4 4 4 5 8 7 10 2 2 2 2 3 2 2 1 2 3 2 4 3 7 6 3 5 4 4 5 6 6 6 4 4 4 7 6 7 8 8 7 6 6 7 6 6 6 6 5
2 5 3 5 5 5 5 10 13 9 13 10 5 6 5 4 1 2 1 1 2 1 2 2 3 2 2 2 1 2 5 3 4 3 4 7 6 5 5 6 6 7 9 9 8 8 8 7 6 7 6 5 6 9
5 6 7 6 4 6 5 4 3 5 9 4 5 4 2 4 3 2 1 1 3 3 2 4 4 4 3 5 1 1 1 2 4 2 5 8 7 6 6 6 6 4 7 7 9 9 9 8 8 11 8 7 6 5
5 6 7 6 6 7 6 6 7 6 8 5 3 2 2 2 3 1 3 2 4 5 4 3 4 5 4 6 8 7 6 3 4 3 3 8 8 7 6 6 8 7 9 9 8 9 9 8 8 9 9 9 8 6
6 5 8 7 7 7 10 9 8 5 4 4 2 3 2 3 1 2 2 3 6 5 6 5 4 4 3 6 7 8 7 7 7 3 2 5 5 5 4 4 7 12 10 10 9 10 10 8 7 8 10 9 7 6
6 5 7 10 8 6 5 7 6 3 4 4 2 2 2 2 1 1 2 3 4 4 4 5 3 3 5 5 6 5 5 7 5 2 1 5 7 7 4 5 6 6 7 7 7 10 12 10 10 8 11 9 8 5
9 8 8 8 8 6 5 1 2 2 2 3 3 4 5 3 1 3 3 2 1 2 2 4 4 4 5 5 5 6 7 7 7 7 5 6 4 5 6 7 7 3 7 7 6 5 4 6 4 4 7 7 7 6
3 2 8 10 9 7 3 2 5 5 4 2 2 3 4 3 2 4 5 1 2 3 4 8 8 6 5 5 5 4 4 5 6 9 5 2 3 7 6 5 4 5 2 6 7 8 7 6 6 6 7 8 11 9
6 8 6 8 7 4 3 3 4 3 1 0 3 3 4 3 3 3 4 4 5 6 6 6 6 7 6 5 5 5 4 3 3 4 7 6 6 6 6 7 5 7 7 5 1 7 12 11 8 9 8 10 9 12
8 8 8 7 6 8 2 2 2 2 1 2 4 3 2 3 3 2 5 7 3 5 6 5 6 6 5 5 4 4 3 3 7 7 7 6 5 4 5 6 6 6 8 7 6 3 1 5 8 11 12 12 12 12
Wind_Direction
295 301 305 297 290 272 274 285 301 310 311 314 317 320 326 322 315 318 288 304 287 270 285 272 271 294 289 284 281 293 323 66 322 353 329 349 295 312 298 280 337 331 266 241 276 320 360 350 349 23 308 298 309 303
293 295 295 286 260 259 269 281 301 304 306 310 312 320 319 314 314 317 287 307 301 268 275 287 275 269 258 257 267 264 256 305 270 313 325 301 282 288 312 331 341 40 355 15 15 356 306 322 327 310 304 51 113 121
292 297 298 281 255 264 268 288 296 301 304 305 316 313 310 311 316 315 294 291 292 276 283 255 272 287 288 247 253 235 220 138 190 162 284 283 281 296 305 10 314 52 16 38 235 353 346 0 354 351 11 38 108 117
289 294 295 264 255 255 260 280 293 297 300 307 307 304 307 310 312 311 288 287 290 295 283 284 302 301 292 284 257 212 231 107 100 138 224 261 273 286 317 342 347 320 336 15 49 311 333 25 22 9 46 51 68 85
288 289 277 248 252 247 262 281 290 293 299 301 300 305 311 317 320 304 274 264 241 195 289 302 301 256 301 291 220 229 182 140 142 171 216 229 239 252 288 23 4 348 344 24 21 51 66 41 41 52 60 53 62 74
280 282 257 241 239 250 269 282 288 295 297 297 300 303 306 316 325 312 300 289 84 114 290 305 344 292 300 294 257 92 163 115 144 184 217 237 230 250 32 50 357 39 36 65 84 72 62 58 52 54 68 68 68 68
272 281 228 231 233 255 274 286 294 295 295 297 297 297 299 300 287 241 277 305 266 338 273 299 287 267 287 285 126 113 148 144 169 215 215 224 284 167 36 58 193 261 26 3 267 75 67 61 69 67 67 64 65 68
265 258 221 220 233 255 276 290 295 298 298 297 297 295 292 285 279 261 241 252 252 228 212 278 280 276 34 326 313 135 90 162 198 259 225 269 310 81 56 268 266 252 256 197 204 150 109 102 94 94 101 93 81 74
263 229 209 215 233 258 281 295 301 301 300 298 297 293 280 183 221 237 216 200 177 204 254 211 263 297 5 315 287 272 183 229 128 247 234 129 44 71 202 225 277 181 180 122 104 120 89 78 76 69 63 63 71 73
232 197 207 218 235 262 286 299 304 306 305 299 281 217 218 191 199 143 147 213 180 196 228 256 299 280 6 357 291 318 236 4 281 226 70 62 43 14 230 206 228 190 139 116 99 88 82 76 73 65 65 66 61 60
194 196 206 218 242 270 290 303 309 318 300 297 285 3 326 330 262 214 239 216 164 217 201 233 234 253 158 254 295 291 322 210 266 192 106 141 133 190 217 118 85 85 79 75 76 72 73 86 90 85 74 64 61 56
188 194 205 221 247 268 286 298 318 310 354 306 292 273 270 279 227 250 229 202 204 228 169 215 238 202 158 152 258 255 260 177 237 136 62 104 156 173 124 101 90 88 89 86 80 75 71 80 79 77 73 69 63 55
183 195 207 223 244 264 275 287 303 301 302 261 206 244 245 246 235 225 226 227 237 68 209 241 286 152 138 197 247 264 272 237 181 34 133 147 141 122 114 107 99 97 98 104 108 105 96 78 64 75 76 66 61 52
184 195 212 234 251 257 265 278 286 307 278 230 234 238 237 210 233 216 273 305 274 267 294 315 330 204 292 203 230 258 243 258 93 72 95 137 129 123 120 119 122 120 100 94 94 97 106 98 85 79 73 75 69 70
183 202 225 247 245 255 242 231 265 278 269 258 231 239 232 245 279 347 248 250 4 320 338 321 272 151 224 253 221 267 254 101 101 220 129 138 135 125 128 127 114 119 110 90 81 75 85 100 94 95 97 87 97 85
185 233 220 215 197 192 218 267 235 239 252 244 238 253 281 296 314 306 314 349 358 303 300 264 273 256 248 310 248 252 320 139 159 89 124 126 120 119 118 127 129 108 97 87 82 83 86 94 99 99 94 99 100 132
175 258 159 181 191 210 241 253 229 215 246 229 233 226 253 275 275 279 302 343 319 331 324 299 265 304 287 229 314 30 348 108 112 121 125 118 112 119 116 103 104 104 104 102 92 93 96 120 126 127 141 164 137 103
258 108 117 137 227 248 187 206 249 240 244 246 256 258 263 224 259 268 231 217 107 298 354 359 308 279 299 324 72 314 24 78 81 103 115 111 111 110 112 111 111 109 106 108 111 103 94 91 113 131 143 140 123 112
61 68 64 268 298 283 220 199 227 255 236 245 247 254 259 236 223 230 246 224 146 146 130 145 269 251 282 35 356 292 355 95 113 105 99 100 106 112 117 113 117 119 116 109 107 109 101 76 105 129 127 122 129 123
272 272 249 229 228 228 238 222 196 247 266 275 277 276 270 242 218 232 218 190 149 174 215 211 226 220 219 250 295 204 164 132 127 119 113 99 111 114 129 132 130 127 121 112 115 130 129 120 115 87 79 85 118 123
229 220 211 181 200 227 271 263 231 249 259 268 277 279 245 247 248 236 236 155 141 202 225 213 238 262 275 251 237 189 206 160 158 161 146 142 147 144 136 144 163 165 143 132 123 108 93 116 104 101 105 98 101 107
261 265 213 194 237 226 240 233 255 299 287 261 275 270 265 245 231 46 316 210 218 219 223 235 252 269 307 315 197 182 197 206 164 136 150 152 164 179 167 185 141 124 104 133 126 130 122 115 111 116 114 111 102 113
250 207 231 199 231 246 254 249 220 231 250 286 311 231 255 196 56 293 253 311 294 269 233 252 297 305 306 312 256 219 192 151 144 159 166 179 140 126 130 167 128 134 132 134 135 116 112 121 125 120 121 131 132 128
134 239 233 225 202 248 249 220 233 240 248 251 255 242 127 114 356 231 247 211 292 193 202 289 312 84 257 235 204 179 166 164 147 163 149 137 135 149 156 120 102 116 125 119 118 125 145 136 138 147 152 155 150 141
198 251 193 255 246 238 259 251 241 245 262 270 310 273 130 132 223 213 234 330 170 91 12 352 1 161 170 122 73 359 150 135 116 138 132 126 120 108 107 112 127 128 131 131 142 148 144 153 153 152 157 157 162 161
224 227 195 222 230 225 239 293 316 319 296 268 259 26 99 155 194 46 347 2 95 75 40 29 18 353 67 19 281 91 50 192 149 169 136 138 138 142 148 146 142 149 148 145 145 151 157 168 171 156 161 160 172 163
241 250 214 240 267 288 290 301 306 271 284 296 21 52 50 54 78 222 272 91 76 79 57 355 59 65 68 38 3 341 324 275 169 195 150 146 154 156 160 167 169 167 150 152 152 155 159 172 166 165 157 168 186 188
246 275 259 250 254 269 277 288 291 300 338 9 15 69 74 51 1 274 37 65 78 97 90 66 55 60 57 59 29 1 347 351 339 311 93 121 139 148 141 118 131 145 155 161 162 158 163 168 167 158 158 167 178 211
237 247 256 264 260 248 243 252 254 67 319 338 63 73 86 88 205 320 116 109 113 110 99 93 59 74 88 71 60 20 7 14 340 117 81 114 72 22 35 109 137 162 162 156 162 166 169 167 171 169 168 168 175 180
241 227 237 248 236 246 251 331 92 146 71 25 73 92 97 110 74 69 106 102 134 133 122 115 142 104 96 85 73 44 20 32 20 53 59 72 52 1 18 21 5 8 142 150 144 115 90 142 117 143 155 155 166 168
247 237 236 245 254 264 270 102 66 54 28 41 8 143 127 119 40 16 39 34 148 65 101 84 66 72 88 97 96 83 55 28 32 47 46 47 37 39 6 350 323 289 105 159 154 151 155 159 161 170 180 177 175 177
229 231 247 256 260 270 261 168 147 104 66 258 206 214 139 120 111 64 11 355 77 82 58 74 81 60 30 42 65 88 132 140 125 75 53 34 29 31 332 322 358 2 355 346 303 164 175 178 182 186 195 202 194 186
216 235 229 238 253 259 99 58 84 121 156 213 221 200 114 74 101 27 32 14 13 80 84 74 84 81 56 45 26 8 359 110 92 93 88 83 67 14 341 347 347 342 336 332 335 358 273 194 202 203 198 199 204 200